Showing default

RESURS O1, 23342

Orbit data source: Space-Track

RESURS O1, 23342 is a payload satellite owned by Priroda (CIS) in SSO that was launched on Fri, 04 Nov 1994 UTC via a ZENIT-2 launch vehicle from the Tyuratam Missile And Space Complex (TTMTR). Payload-class satellites include a variety of spacecraft equipped with specific instruments for various scientific and technological missions. These include communications satellites like Starlink; space stations such as the ISS; scientific satellites like the Hubble; Earth observation satellites from companies like Planet Labs, Umbra, and HawkEye 360; GPS; miniature CubeSats for education and research; and military/defense satellites.

Loading next visibility...
Identifier
23342, 1994-074A
Orbit
SSO
Country
Flag of CISCIS
Related business
Manufacturer
VNIIEM
Mission
Civil Imaging
Bus & Motor
RESURS-O, Unknown motor
Mass
1,900 kg wet, 1,900 kg dry
Launch date (UTC)
1994-11-04 (32 years ago)
Launch vehicle
ZENIT-2
Launch site
Tyuratam Missile And Space Complex (TTMTR)
Object type
Payload
Rocket body
Debris
Shape & HBR
Cyl + 2 Pan, 5.8 m
Radar Cross Section
11.656 m², Large (>1 m²)

Expand to show TLE details & history
Last TLE update: 1 day ago

TLE from 1 day ago
0 RESURS O1
1 23342U 94074A   26207.02135840  .00000673  00000-0  84603-4 0  9999
2 23342  97.6626 224.0443 0001183  72.1322 288.0022 14.85129286709690
Epoch: 2026-07-26T00:30Z
TLE epoch observation values (Epoch: 2026-07-26T00:30:45.365Z)
Latitude
-0.00008°
Longitude
-87.36998°
Altitude
615.96 km
Speed
7.551 km/s
True Right ascension
14h 56m 10s
True Declination
0° 00' 00"
Sunlit
Object was in daylight at epoch
Visualization orbit readout
Latitude
Unknown
Longitude
Unknown
Altitude
Unknown
Speed
Unknown
Apparent Right ascension
Unknown
Apparent Declination
Unknown
Sunlit
N/A
Visualization observer readout
Local Sidereal Time
16:48:35
Azimuth
Unknown
Elevation
Unknown
Doppler factor
Unknown
Orbital elements
Apogee altitude
611.03 km
Perigee altitude
609.377 km
Semi-major axis
6,988.341 km
Eccentricity
0.00012
Inclination
97.6626°
RAAN
224.0443°
Arg. of periapsis
72.1322°
True anomaly
287.98931°
Mean anomaly
288.0022°
Eccentric anomaly
287.99575°
Mean motion
3.7152 °/min
Orbital period
96.9 mins
BSTAR
0.000084603
Loading maneuver chart data...
Computing Atmospheric mass density...

Documentation

Showing up to 5 results
|